Rochelle, IL

10:31 PM CDT on August 24, 2016 (GMT -0500)
Rochelle

Weather History for KRPJ - October, 2013

Change the Weather History Date:

Monday, October 28, 2013

  Actual Average (KRFD) Record (KRFD)
Temperature  
Mean Temperature 42 °F 48 °F  
Max Temperature 57 °F 58 °F 77 °F (1950)
Min Temperature 27 °F 38 °F 9 °F (1925)
Degree Days  
Heating Degree Days 23 18  
Month to date heating degree days 366  
Since 1 July heating degree days 497  
Cooling Degree Days 0 0  
Month to date cooling degree days 8  
Year to date cooling degree days 819  
Moisture  
Dew Point 34 °F    
Average Humidity 77    
Maximum Humidity 94    
Minimum Humidity 50    
Precipitation  
Precipitation 0.00 in 0.09 in 1.37 in (1970)
Month to date precipitation 2.41  
Year to date precipitation 31.42  
Snow  
Snow 0.00 in 0.00 in 0.20 in (1925)
Month to date snowfall 0.1  
Since 1 July snowfall 0.1  
Since 1 September snowfall 0.1  
Snow Depth -    
Sea Level Pressure  
Sea Level Pressure 30.23 in    
Wind  
Wind Speed 6 mph (ENE)    
Max Wind Speed 18 mph    
Max Gust Speed 24 mph    
Visibility 10 miles    
Events      
T = Trace of Precipitation, MM = Missing Value Source: NWS Daily Summary

Daily Weather History Graph

Daily Weather History Graph

Search for Another Location

Airport or City:

Trip Planner

Search our weather history database for the weather conditions in past years. The results will help you decide how hot, cold, wet, or windy it might be!

Date:

Astronomy

Oct. 28, 2013 Rise Set
Actual Time 7:24 AM CDT 5:55 PM CDT
Civil Twilight 6:55 AM CDT 6:24 PM CDT
Nautical Twilight 6:22 AM CDT 6:56 PM CDT
Astronomical Twilight 5:50 AM CDT 7:29 PM CDT
Moon 1:11 AM CDT (10/28) 2:42 PM CDT (10/28)
Length of Visible Light 11h 28m
Length of Day
10h 31m
Waning Crescent, 34% of the Moon is Illuminated
Oct 28
Waning Crescent
Nov 3
New
Nov 9
First Quarter
Nov 17
Full
Nov 25
Last Quarter

Hourly Weather History & Observations

Time (CDT) Temp. Windchill Dew Point Humidity Pressure Visibility Wind Dir Wind Speed Gust Speed Precip Events Conditions
12:15 AM 35.6 °F - 31.8 °F 86% 30.05 in 10.0 mi Calm Calm - N/A   Overcast
12:35 AM 34.0 °F 31.0 °F 30.2 °F 86% 30.06 in 10.0 mi SSE 3.5 mph - N/A   Scattered Clouds
12:55 AM 32.0 °F 28.7 °F 29.5 °F 90% 30.06 in 10.0 mi SSE 3.5 mph - N/A   Clear
1:15 AM 31.5 °F - 29.3 °F 92% 30.06 in 10.0 mi Calm Calm - N/A   Clear
1:35 AM 30.7 °F 27.3 °F 28.4 °F 91% 30.06 in 10.0 mi SSE 3.5 mph - N/A   Clear
1:55 AM 30.7 °F 26.0 °F 28.6 °F 92% 30.06 in 10.0 mi SSE 4.6 mph - N/A   Clear
2:15 AM 30.4 °F 24.5 °F 28.2 °F 92% 30.07 in 10.0 mi SSE 5.8 mph - N/A   Clear
2:35 AM 31.6 °F 27.0 °F 28.8 °F 89% 30.08 in 10.0 mi South 4.6 mph - N/A   Clear
2:55 AM 32.0 °F 28.7 °F 28.6 °F 87% 30.08 in 10.0 mi SSE 3.5 mph - N/A   Clear
3:15 AM 30.4 °F 26.9 °F 27.7 °F 90% 30.08 in 10.0 mi SSE 3.5 mph - N/A   Clear
3:35 AM 29.3 °F 25.6 °F 27.5 °F 93% 30.09 in 10.0 mi SE 3.5 mph - N/A   Clear
3:55 AM 28.6 °F - 27.0 °F 94% 30.09 in 10.0 mi Calm Calm - N/A   Clear
4:15 AM 29.5 °F - 27.7 °F 93% 30.09 in 10.0 mi Calm Calm - N/A   Clear
4:35 AM 27.9 °F - 26.4 °F 94% 30.10 in 10.0 mi Calm Calm - N/A   Clear
4:55 AM 33.1 °F - 30.0 °F 89% 30.12 in 10.0 mi Calm Calm - N/A   Clear
5:15 AM 33.1 °F 30.0 °F 29.7 °F 87% 30.13 in 10.0 mi ENE 3.5 mph - N/A   Clear
5:35 AM 32.4 °F - 29.1 °F 88% 30.14 in 10.0 mi Calm Calm - N/A   Clear
5:55 AM 30.7 °F 24.9 °F 28.0 °F 90% 30.15 in 10.0 mi NNE 5.8 mph - N/A   Clear
6:15 AM 30.6 °F 27.1 °F 27.3 °F 88% 30.16 in 10.0 mi NE 3.5 mph - N/A   Clear
6:35 AM 31.1 °F 25.4 °F 28.0 °F 88% 30.17 in 10.0 mi NE 5.8 mph - N/A   Clear
6:55 AM 31.1 °F 25.4 °F 28.4 °F 90% 30.18 in 10.0 mi NE 5.8 mph - N/A   Clear
7:15 AM 31.1 °F 25.4 °F 28.4 °F 90% 30.19 in 10.0 mi NE 5.8 mph - N/A   Clear
7:35 AM 30.9 °F 26.2 °F 28.4 °F 90% 30.20 in 10.0 mi NE 4.6 mph - N/A   Clear
7:55 AM 32.0 °F 27.5 °F 29.3 °F 90% 30.21 in 10.0 mi NE 4.6 mph - N/A   Clear
8:15 AM 34.0 °F 28.8 °F 31.8 °F 92% 30.22 in 10.0 mi NE 5.8 mph - N/A   Clear
8:35 AM 36.7 °F 32.9 °F 33.6 °F 89% 30.23 in 10.0 mi NE 4.6 mph - N/A   Clear
8:55 AM 38.8 °F 33.8 °F 35.1 °F 86% 30.24 in 10.0 mi NE 6.9 mph - N/A   Clear
9:15 AM 41.2 °F 36.0 °F 36.7 °F 84% 30.25 in 10.0 mi NE 8.1 mph - N/A   Clear
9:35 AM 44.1 °F 39.0 °F 38.5 °F 81% 30.26 in 10.0 mi ENE 9.2 mph - N/A   Clear
9:55 AM 46.4 °F 40.7 °F 39.7 °F 78% 30.26 in 10.0 mi NE 12.7 mph 18.4 mph N/A   Clear
10:15 AM 48.2 °F - 40.5 °F 75% 30.26 in 10.0 mi ENE 12.7 mph 17.3 mph N/A   Clear
10:35 AM 49.8 °F - 40.5 °F 70% 30.27 in 10.0 mi NE 16.1 mph - N/A   Scattered Clouds
10:55 AM 50.5 °F - 40.8 °F 69% 30.27 in 10.0 mi East 11.5 mph - N/A   Scattered Clouds
11:15 AM 52.3 °F - 40.1 °F 63% 30.28 in 10.0 mi ENE 10.4 mph 18.4 mph N/A   Scattered Clouds
11:35 AM 53.4 °F - 39.9 °F 60% 30.28 in 10.0 mi East 10.4 mph - N/A   Scattered Clouds
11:55 AM 54.3 °F - 39.9 °F 58% 30.28 in 10.0 mi East 11.5 mph - N/A   Scattered Clouds
12:15 PM 54.7 °F - 38.7 °F 55% 30.27 in 10.0 mi ENE 10.4 mph - N/A   Scattered Clouds
12:35 PM 56.1 °F - 39.0 °F 53% 30.27 in 10.0 mi ENE 8.1 mph - N/A   Scattered Clouds
12:55 PM 56.3 °F - 38.5 °F 51% 30.27 in 10.0 mi ENE 10.4 mph - N/A   Scattered Clouds
1:15 PM 56.1 °F - 37.8 °F 50% 30.26 in 10.0 mi East 9.2 mph 19.6 mph N/A   Scattered Clouds
1:35 PM 56.3 °F - 37.6 °F 50% 30.26 in 10.0 mi ENE 5.8 mph - N/A   Clear
1:55 PM 56.3 °F - 37.9 °F 50% 30.26 in 10.0 mi East 9.2 mph - N/A   Scattered Clouds
2:15 PM 56.5 °F - 37.8 °F 50% 30.25 in 10.0 mi NE 8.1 mph - N/A   Scattered Clouds
2:35 PM 57.2 °F - 38.5 °F 50% 30.25 in 10.0 mi ENE 10.4 mph 17.3 mph N/A   Scattered Clouds
2:55 PM 55.0 °F - 39.0 °F 55% 30.25 in 10.0 mi North 12.7 mph 19.6 mph N/A   Mostly Cloudy
3:15 PM 52.7 °F - 39.2 °F 60% 30.26 in 10.0 mi NNE 15.0 mph - N/A   Mostly Cloudy
3:35 PM 51.8 °F - 39.2 °F 62% 30.26 in 10.0 mi NNE 16.1 mph - N/A   Scattered Clouds
3:55 PM 51.4 °F - 38.7 °F 62% 30.27 in 10.0 mi NNE 18.4 mph 24.2 mph N/A   Scattered Clouds
4:15 PM 50.0 °F - 38.5 °F 65% 30.28 in 10.0 mi NE 16.1 mph 21.9 mph N/A   Scattered Clouds
4:35 PM 49.1 °F - 38.3 °F 66% 30.29 in 10.0 mi NE 13.8 mph 20.7 mph N/A   Clear
4:55 PM 47.7 °F - 37.8 °F 69% 30.29 in 10.0 mi NE 16.1 mph - N/A   Clear
5:15 PM 46.4 °F 39.5 °F 37.6 °F 71% 30.29 in 10.0 mi NE 17.3 mph 21.9 mph N/A   Clear
5:35 PM 45.0 °F 38.2 °F 37.4 °F 75% 30.29 in 10.0 mi NE 15.0 mph 21.9 mph N/A   Clear
5:55 PM 43.7 °F 36.6 °F 36.7 °F 76% 30.30 in 10.0 mi NE 15.0 mph 19.6 mph N/A   Clear
6:15 PM 43.0 °F 36.4 °F 36.3 °F 77% 30.31 in 10.0 mi ENE 12.7 mph - N/A   Clear
6:35 PM 42.3 °F 35.1 °F 35.8 °F 78% 30.32 in 10.0 mi ENE 13.8 mph 20.7 mph N/A   Clear
6:55 PM 41.7 °F 35.6 °F 35.4 °F 78% 30.32 in 10.0 mi NE 10.4 mph 13.8 mph N/A   Clear
7:15 PM 41.0 °F 33.9 °F 34.9 °F 79% 30.33 in 10.0 mi NE 12.7 mph - N/A   Clear
7:35 PM 40.8 °F 33.3 °F 34.3 °F 78% 30.33 in 10.0 mi NE 13.8 mph - N/A   Clear
7:55 PM 40.1 °F 33.2 °F 34.2 °F 79% 30.34 in 10.0 mi NE 11.5 mph - N/A   Clear
8:15 PM 39.7 °F 32.7 °F 34.0 °F 80% 30.34 in 10.0 mi ENE 11.5 mph - N/A   Clear
8:35 PM 39.4 °F 32.3 °F 33.8 °F 80% 30.34 in 10.0 mi NE 11.5 mph - N/A   Clear
8:55 PM 39.4 °F 32.3 °F 33.1 °F 78% 30.34 in 10.0 mi ENE 11.5 mph - N/A   Clear
9:15 PM 39.2 °F 31.6 °F 32.7 °F 78% 30.34 in 10.0 mi ENE 12.7 mph 19.6 mph N/A   Clear
9:35 PM 38.7 °F 31.4 °F 32.2 °F 78% 30.35 in 10.0 mi NE 11.5 mph - N/A   Clear
9:55 PM 38.3 °F 30.9 °F 32.0 °F 78% 30.36 in 10.0 mi ENE 11.5 mph - N/A   Clear
10:15 PM 38.3 °F 31.4 °F 31.8 °F 77% 30.36 in 10.0 mi ENE 10.4 mph 16.1 mph N/A   Clear
10:35 PM 37.8 °F 30.7 °F 31.5 °F 78% 30.36 in 10.0 mi NE 10.4 mph - N/A   Clear
10:55 PM 37.4 °F 29.8 °F 31.1 °F 78% 30.36 in 10.0 mi ENE 11.5 mph - N/A   Clear
11:15 PM 37.4 °F 30.3 °F 31.1 °F 78% 30.36 in 10.0 mi ENE 10.4 mph - N/A   Clear
11:35 PM 37.4 °F 29.8 °F 31.5 °F 79% 30.36 in 10.0 mi ENE 11.5 mph - N/A   Clear
11:55 PM 37.4 °F 29.8 °F 31.5 °F 79% 30.36 in 10.0 mi NE 11.5 mph - N/A   Clear